Time,TemperatureF,DewpointF,PressureIn,WindDirection,WindDirectionDegrees,WindSpeedMPH,WindSpeedGustMPH,Humidity,HourlyPrecipIn,Conditions,Clouds,dailyrainin,SoftwareType,DateUTC
2013-06-11 00:02:00,58.0,45.0,29.91,West,267,10.0,17.0,63,-99.99,,,-99.99,,2013-06-11 07:02:00,
2013-06-11 00:22:00,57.0,45.0,29.91,West,268,10.0,18.0,64,-99.99,,,-99.99,,2013-06-11 07:22:00,
2013-06-11 00:32:00,57.0,45.0,29.92,West,269,10.0,19.0,65,-99.99,,,-99.99,,2013-06-11 07:32:00,
2013-06-11 00:42:00,56.0,45.0,29.92,West,269,10.0,16.0,65,-99.99,,,-99.99,,2013-06-11 07:42:00,
2013-06-11 00:52:00,56.0,45.0,29.92,West,274,9.0,18.0,65,-99.99,,,-99.99,,2013-06-11 07:52:00,
2013-06-11 01:02:00,56.0,45.0,29.92,West,276,9.0,16.0,65,-99.99,,,-99.99,,2013-06-11 08:02:00,
2013-06-11 01:12:00,56.0,44.0,29.92,West,274,10.0,18.0,65,-99.99,,,-99.99,,2013-06-11 08:12:00,
2013-06-11 01:22:00,56.0,44.0,29.92,West,273,9.0,15.0,65,-99.99,,,-99.99,,2013-06-11 08:22:00,
2013-06-11 01:32:00,55.0,44.0,29.92,West,263,13.0,20.0,66,-99.99,,,-99.99,,2013-06-11 08:32:00,
2013-06-11 01:42:00,55.0,44.0,29.92,West,263,13.0,20.0,66,-99.99,,,-99.99,,2013-06-11 08:42:00,
2013-06-11 01:52:00,54.0,43.0,29.92,West,274,13.0,24.0,65,-99.99,,,-99.99,,2013-06-11 08:52:00,
2013-06-11 02:02:00,54.0,43.0,29.92,West,274,13.0,24.0,65,-99.99,,,-99.99,,2013-06-11 09:02:00,
2013-06-11 02:12:00,54.0,43.0,29.92,WNW,287,17.0,32.0,65,-99.99,,,-99.99,,2013-06-11 09:12:00,
2013-06-11 02:22:00,54.0,43.0,29.92,WNW,283,14.0,24.0,65,-99.99,,,-99.99,,2013-06-11 09:22:00,
2013-06-11 02:33:00,54.0,43.0,29.93,West,274,11.0,21.0,65,-99.99,,,-99.99,,2013-06-11 09:33:00,
2013-06-11 02:43:00,54.0,43.0,29.93,West,274,11.0,21.0,65,-99.99,,,-99.99,,2013-06-11 09:43:00,
2013-06-11 02:53:00,54.0,43.0,29.93,WNW,296,12.0,22.0,66,-99.99,,,-99.99,,2013-06-11 09:53:00,
2013-06-11 03:03:00,54.0,43.0,29.93,WNW,296,12.0,22.0,66,-99.99,,,-99.99,,2013-06-11 10:03:00,
2013-06-11 03:12:00,54.0,43.0,29.94,WNW,282,12.0,20.0,66,-99.99,,,-99.99,,2013-06-11 10:12:00,
2013-06-11 03:22:00,53.0,43.0,29.94,WNW,288,11.0,18.0,67,-99.99,,,-99.99,,2013-06-11 10:22:00,
2013-06-11 03:33:00,54.0,43.0,29.95,WNW,285,12.0,21.0,66,-99.99,,,-99.99,,2013-06-11 10:33:00,
2013-06-11 03:42:00,54.0,43.0,29.95,WNW,285,12.0,21.0,66,-99.99,,,-99.99,,2013-06-11 10:42:00,
2013-06-11 03:52:00,53.0,42.0,29.95,WNW,287,13.0,22.0,65,-99.99,,,-99.99,,2013-06-11 10:52:00,
2013-06-11 04:02:00,53.0,42.0,29.95,WNW,296,11.0,21.0,66,-99.99,,,-99.99,,2013-06-11 11:02:00,
2013-06-11 04:12:00,53.0,42.0,29.95,WNW,296,11.0,21.0,66,-99.99,,,-99.99,,2013-06-11 11:12:00,
2013-06-11 04:22:00,53.0,43.0,29.96,WNW,292,11.0,17.0,67,-99.99,,,-99.99,,2013-06-11 11:22:00,
2013-06-11 04:32:00,52.0,43.0,29.96,WNW,291,12.0,20.0,69,-99.99,,,-99.99,,2013-06-11 11:32:00,
2013-06-11 04:41:00,52.0,43.0,29.96,WNW,291,12.0,20.0,69,-99.99,,,-99.99,,2013-06-11 11:41:00,
2013-06-11 04:52:00,52.0,43.0,29.97,WNW,289,11.0,19.0,70,-99.99,,,-99.99,,2013-06-11 11:52:00,
2013-06-11 05:02:00,52.0,43.0,29.97,WNW,289,11.0,19.0,70,-99.99,,,-99.99,,2013-06-11 12:02:00,
2013-06-11 05:12:00,52.0,43.0,29.97,WNW,285,11.0,20.0,70,-99.99,,,-99.99,,2013-06-11 12:12:00,
2013-06-11 05:22:00,52.0,43.0,29.97,WNW,286,9.0,16.0,70,-99.99,,,-99.99,,2013-06-11 12:22:00,
2013-06-11 05:32:00,52.0,43.0,29.97,WNW,294,11.0,16.0,69,-99.99,,,-99.99,,2013-06-11 12:32:00,
2013-06-11 05:42:00,53.0,43.0,29.97,WNW,291,9.0,17.0,69,-99.99,,,-99.99,,2013-06-11 12:42:00,
2013-06-11 05:52:00,53.0,42.0,29.98,West,274,9.0,16.0,65,-99.99,,,-99.99,,2013-06-11 12:52:00,
2013-06-11 06:02:00,53.0,42.0,29.98,West,274,9.0,16.0,65,-99.99,,,-99.99,,2013-06-11 13:02:00,
2013-06-11 06:12:00,53.0,41.0,29.99,West,273,10.0,19.0,63,-99.99,,,-99.99,,2013-06-11 13:12:00,
2013-06-11 06:22:00,53.0,41.0,29.99,West,280,8.0,13.0,64,-99.99,,,-99.99,,2013-06-11 13:22:00,
2013-06-11 06:32:00,53.0,41.0,29.99,West,277,10.0,17.0,64,-99.99,,,-99.99,,2013-06-11 13:32:00,
2013-06-11 06:42:00,53.0,41.0,29.99,West,277,10.0,17.0,64,-99.99,,,-99.99,,2013-06-11 13:42:00,
2013-06-11 06:52:00,53.0,41.0,29.99,West,276,10.0,22.0,62,-99.99,,,-99.99,,2013-06-11 13:52:00,
2013-06-11 07:02:00,53.0,41.0,29.99,West,275,10.0,16.0,62,-99.99,,,-99.99,,2013-06-11 14:02:00,
2013-06-11 07:12:00,53.0,41.0,30.00,West,270,8.0,16.0,63,-99.99,,,-99.99,,2013-06-11 14:12:00,
2013-06-11 07:22:00,54.0,41.0,30.00,West,267,10.0,19.0,62,-99.99,,,-99.99,,2013-06-11 14:22:00,
2013-06-11 07:32:00,54.0,41.0,30.00,West,267,10.0,19.0,62,-99.99,,,-99.99,,2013-06-11 14:32:00,
2013-06-11 07:42:00,54.0,40.0,30.00,West,273,11.0,19.0,59,-99.99,,,-99.99,,2013-06-11 14:42:00,
2013-06-11 07:52:00,54.0,40.0,30.00,West,265,12.0,22.0,58,-99.99,,,-99.99,,2013-06-11 14:52:00,
2013-06-11 08:02:00,55.0,40.0,30.00,West,265,12.0,22.0,58,-99.99,,,-99.99,,2013-06-11 15:02:00,
2013-06-11 08:12:00,55.0,40.0,30.00,West,263,12.0,18.0,57,-99.99,,,-99.99,,2013-06-11 15:12:00,
2013-06-11 08:22:00,55.0,40.0,30.00,West,273,11.0,21.0,56,-99.99,,,-99.99,,2013-06-11 15:22:00,
2013-06-11 08:33:00,55.0,39.0,30.00,West,266,14.0,21.0,55,-99.99,,,-99.99,,2013-06-11 15:33:00,
2013-06-11 08:42:00,55.0,41.0,30.01,West,277,10.0,21.0,59,-99.99,,,-99.99,,2013-06-11 15:42:00,
2013-06-11 08:53:00,55.0,40.0,30.01,West,271,10.0,16.0,57,-99.99,,,-99.99,,2013-06-11 15:53:00,
2013-06-11 09:02:00,55.0,40.0,30.01,West,271,10.0,16.0,57,-99.99,,,-99.99,,2013-06-11 16:02:00,
2013-06-11 09:12:00,54.0,42.0,30.01,West,275,15.0,25.0,62,-99.99,,,-99.99,,2013-06-11 16:12:00,
2013-06-11 09:22:00,55.0,42.0,30.02,West,277,12.0,25.0,62,-99.99,,,-99.99,,2013-06-11 16:22:00,
2013-06-11 09:32:00,55.0,42.0,30.02,West,278,13.0,23.0,60,-99.99,,,-99.99,,2013-06-11 16:32:00,
2013-06-11 09:42:00,55.0,42.0,30.02,West,278,12.0,22.0,60,-99.99,,,-99.99,,2013-06-11 16:42:00,
2013-06-11 09:52:00,55.0,42.0,30.02,WNW,289,13.0,25.0,61,-99.99,,,-99.99,,2013-06-11 16:52:00,
2013-06-11 10:02:00,55.0,42.0,30.02,WNW,289,13.0,25.0,61,-99.99,,,-99.99,,2013-06-11 17:02:00,
2013-06-11 10:12:00,55.0,43.0,30.03,West,280,15.0,25.0,62,-99.99,,,-99.99,,2013-06-11 17:12:00,
2013-06-11 10:22:00,55.0,42.0,30.03,WNW,285,14.0,24.0,61,-99.99,,,-99.99,,2013-06-11 17:22:00,
2013-06-11 10:32:00,58.0,42.0,30.03,WNW,293,15.0,22.0,56,-99.99,,,-99.99,,2013-06-11 17:32:00,
2013-06-11 10:43:00,58.0,42.0,30.03,WNW,293,15.0,22.0,56,-99.99,,,-99.99,,2013-06-11 17:43:00,
2013-06-11 10:52:00,59.0,41.0,30.03,West,280,12.0,23.0,52,-99.99,,,-99.99,,2013-06-11 17:52:00,
2013-06-11 11:02:00,59.0,41.0,30.03,West,280,12.0,23.0,52,-99.99,,,-99.99,,2013-06-11 18:02:00,
2013-06-11 11:12:00,58.0,41.0,30.04,WNW,285,13.0,25.0,52,-99.99,,,-99.99,,2013-06-11 18:12:00,
2013-06-11 11:22:00,58.0,41.0,30.04,WNW,284,15.0,25.0,54,-99.99,,,-99.99,,2013-06-11 18:22:00,
2013-06-11 11:32:00,58.0,42.0,30.04,WNW,287,12.0,26.0,55,-99.99,,,-99.99,,2013-06-11 18:32:00,
2013-06-11 11:42:00,59.0,41.0,30.04,WNW,286,14.0,27.0,52,-99.99,,,-99.99,,2013-06-11 18:42:00,
2013-06-11 11:52:00,59.0,41.0,30.05,WNW,289,13.0,22.0,52,-99.99,,,-99.99,,2013-06-11 18:52:00,
2013-06-11 12:02:00,59.0,41.0,30.05,WNW,289,13.0,22.0,52,-99.99,,,-99.99,,2013-06-11 19:02:00,
2013-06-11 12:12:00,59.0,41.0,30.05,WNW,290,15.0,25.0,51,-99.99,,,-99.99,,2013-06-11 19:12:00,
2013-06-11 12:22:00,59.0,41.0,30.05,WNW,290,12.0,22.0,52,-99.99,,,-99.99,,2013-06-11 19:22:00,
2013-06-11 12:32:00,59.0,41.0,30.05,WNW,283,13.0,25.0,52,-99.99,,,-99.99,,2013-06-11 19:32:00,
2013-06-11 12:42:00,60.0,42.0,30.05,WNW,287,11.0,25.0,51,-99.99,,,-99.99,,2013-06-11 19:42:00,
2013-06-11 12:52:00,60.0,41.0,30.05,WNW,287,13.0,22.0,48,-99.99,,,-99.99,,2013-06-11 19:52:00,
2013-06-11 13:02:00,60.0,42.0,30.05,WNW,290,11.0,20.0,51,-99.99,,,-99.99,,2013-06-11 20:02:00,
2013-06-11 13:12:00,62.0,41.0,30.05,WNW,293,14.0,22.0,45,-99.99,,,-99.99,,2013-06-11 20:12:00,
2013-06-11 13:22:00,62.0,40.0,30.05,WNW,283,12.0,23.0,45,-99.99,,,-99.99,,2013-06-11 20:22:00,
2013-06-11 13:32:00,61.0,40.0,30.05,WNW,291,14.0,31.0,45,-99.99,,,-99.99,,2013-06-11 20:32:00,
2013-06-11 13:42:00,62.0,40.0,30.05,WNW,288,14.0,23.0,44,-99.99,,,-99.99,,2013-06-11 20:42:00,
2013-06-11 13:52:00,63.0,40.0,30.05,WNW,292,15.0,27.0,43,-99.99,,,-99.99,,2013-06-11 20:52:00,
2013-06-11 14:02:00,63.0,40.0,30.05,WNW,292,15.0,27.0,43,-99.99,,,-99.99,,2013-06-11 21:02:00,
2013-06-11 14:12:00,63.0,41.0,30.05,WNW,283,13.0,24.0,45,-99.99,,,-99.99,,2013-06-11 21:12:00,
2013-06-11 14:22:00,63.0,41.0,30.05,WNW,287,16.0,27.0,44,-99.99,,,-99.99,,2013-06-11 21:22:00,
2013-06-11 14:33:00,63.0,41.0,30.05,WNW,288,16.0,32.0,44,-99.99,,,-99.99,,2013-06-11 21:33:00,
2013-06-11 14:42:00,62.0,42.0,30.05,WNW,293,14.0,25.0,47,-99.99,,,-99.99,,2013-06-11 21:42:00,
2013-06-11 14:52:00,62.0,42.0,30.05,West,277,13.0,24.0,47,-99.99,,,-99.99,,2013-06-11 21:52:00,
2013-06-11 15:03:00,63.0,41.0,30.05,WNW,284,15.0,27.0,44,-99.99,,,-99.99,,2013-06-11 22:03:00,
2013-06-11 15:12:00,63.0,42.0,30.05,West,281,16.0,27.0,45,-99.99,,,-99.99,,2013-06-11 22:12:00,
2013-06-11 15:22:00,62.0,41.0,30.05,WNW,285,17.0,29.0,47,-99.99,,,-99.99,,2013-06-11 22:22:00,
2013-06-11 15:32:00,61.0,42.0,30.06,WNW,288,17.0,28.0,49,-99.99,,,-99.99,,2013-06-11 22:32:00,
2013-06-11 15:42:00,61.0,42.0,30.06,WNW,292,14.0,29.0,48,-99.99,,,-99.99,,2013-06-11 22:42:00,
2013-06-11 15:52:00,61.0,43.0,30.07,WNW,293,14.0,25.0,51,-99.99,,,-99.99,,2013-06-11 22:52:00,
2013-06-11 16:02:00,61.0,43.0,30.07,WNW,293,14.0,25.0,51,-99.99,,,-99.99,,2013-06-11 23:02:00,
2013-06-11 16:12:00,62.0,43.0,30.07,West,281,13.0,23.0,51,-99.99,,,-99.99,,2013-06-11 23:12:00,
2013-06-11 16:22:00,61.0,42.0,30.07,WNW,283,16.0,29.0,49,-99.99,,,-99.99,,2013-06-11 23:22:00,
2013-06-11 16:32:00,62.0,42.0,30.07,WNW,290,12.0,20.0,48,-99.99,,,-99.99,,2013-06-11 23:32:00,
2013-06-11 16:42:00,62.0,42.0,30.07,WNW,288,14.0,22.0,48,-99.99,,,-99.99,,2013-06-11 23:42:00,
2013-06-11 16:52:00,62.0,44.0,30.07,West,278,11.0,23.0,51,-99.99,,,-99.99,,2013-06-11 23:52:00,
2013-06-11 17:02:00,62.0,44.0,30.07,West,278,11.0,23.0,51,-99.99,,,-99.99,,2013-06-12 00:02:00,
2013-06-11 17:12:00,62.0,44.0,30.07,West,269,10.0,19.0,50,-99.99,,,-99.99,,2013-06-12 00:12:00,
2013-06-11 17:22:00,62.0,43.0,30.07,West,270,11.0,18.0,50,-99.99,,,-99.99,,2013-06-12 00:22:00,
2013-06-11 17:32:00,62.0,43.0,30.07,West,280,10.0,21.0,49,-99.99,,,-99.99,,2013-06-12 00:32:00,
2013-06-11 17:42:00,62.0,43.0,30.07,West,280,10.0,21.0,49,-99.99,,,-99.99,,2013-06-12 00:42:00,
2013-06-11 17:52:00,63.0,43.0,30.07,WNW,285,17.0,32.0,48,-99.99,,,-99.99,,2013-06-12 00:52:00,
2013-06-11 18:02:00,63.0,43.0,30.07,WNW,285,17.0,32.0,48,-99.99,,,-99.99,,2013-06-12 01:02:00,
2013-06-11 18:22:00,61.0,43.0,30.07,WNW,290,13.0,24.0,51,-99.99,,,-99.99,,2013-06-12 01:22:00,
2013-06-11 18:32:00,61.0,42.0,30.07,WNW,290,12.0,22.0,49,-99.99,,,-99.99,,2013-06-12 01:32:00,
2013-06-11 18:42:00,62.0,43.0,30.07,West,281,10.0,18.0,49,-99.99,,,-99.99,,2013-06-12 01:42:00,
2013-06-11 18:52:00,61.0,44.0,30.07,West,278,7.0,13.0,53,-99.99,,,-99.99,,2013-06-12 01:52:00,
2013-06-11 19:02:00,61.0,44.0,30.07,West,278,7.0,13.0,53,-99.99,,,-99.99,,2013-06-12 02:02:00,
2013-06-11 19:12:00,61.0,44.0,30.07,WNW,290,9.0,19.0,53,-99.99,,,-99.99,,2013-06-12 02:12:00,
2013-06-11 19:22:00,60.0,44.0,30.07,West,281,9.0,15.0,55,-99.99,,,-99.99,,2013-06-12 02:22:00,
2013-06-11 19:32:00,59.0,45.0,30.08,WNW,296,8.0,15.0,58,-99.99,,,-99.99,,2013-06-12 02:32:00,
2013-06-11 19:42:00,59.0,45.0,30.08,West,274,11.0,19.0,60,-99.99,,,-99.99,,2013-06-12 02:42:00,
2013-06-11 19:52:00,58.0,46.0,30.09,West,274,10.0,18.0,64,-99.99,,,-99.99,,2013-06-12 02:52:00,
2013-06-11 20:02:00,58.0,46.0,30.09,West,274,10.0,18.0,64,-99.99,,,-99.99,,2013-06-12 03:02:00,
2013-06-11 20:12:00,57.0,46.0,30.09,West,275,8.0,15.0,66,-99.99,,,-99.99,,2013-06-12 03:12:00,
2013-06-11 20:22:00,57.0,46.0,30.09,West,277,10.0,16.0,66,-99.99,,,-99.99,,2013-06-12 03:22:00,
2013-06-11 20:32:00,57.0,46.0,30.09,West,274,8.0,16.0,68,-99.99,,,-99.99,,2013-06-12 03:32:00,
2013-06-11 20:42:00,56.0,46.0,30.09,West,275,9.0,15.0,68,-99.99,,,-99.99,,2013-06-12 03:42:00,
2013-06-11 20:53:00,56.0,46.0,30.10,West,277,9.0,15.0,69,-99.99,,,-99.99,,2013-06-12 03:53:00,
2013-06-11 21:02:00,56.0,46.0,30.10,West,277,9.0,15.0,69,-99.99,,,-99.99,,2013-06-12 04:02:00,
2013-06-11 21:12:00,56.0,46.0,30.10,WNW,291,7.0,14.0,70,-99.99,,,-99.99,,2013-06-12 04:12:00,
2013-06-11 21:22:00,56.0,46.0,30.10,West,276,5.0,11.0,70,-99.99,,,-99.99,,2013-06-12 04:22:00,
2013-06-11 21:33:00,56.0,46.0,30.10,West,265,4.0,7.0,71,-99.99,,,-99.99,,2013-06-12 04:33:00,
2013-06-11 21:42:00,55.0,46.0,30.10,WSW,238,3.0,5.0,72,-99.99,,,-99.99,,2013-06-12 04:42:00,
2013-06-11 21:52:00,55.0,46.0,30.10,WSW,250,3.0,8.0,73,-99.99,,,-99.99,,2013-06-12 04:52:00,
2013-06-11 22:02:00,54.0,46.0,30.11,WSW,246,3.0,6.0,74,-99.99,,,-99.99,,2013-06-12 05:02:00,
2013-06-11 22:12:00,54.0,47.0,30.11,West,270,5.0,8.0,75,-99.99,,,-99.99,,2013-06-12 05:12:00,
2013-06-11 22:22:00,55.0,47.0,30.11,West,275,6.0,11.0,75,-99.99,,,-99.99,,2013-06-12 05:22:00,
2013-06-11 22:32:00,55.0,47.0,30.11,West,275,6.0,11.0,75,-99.99,,,-99.99,,2013-06-12 05:32:00,
2013-06-11 22:42:00,54.0,47.0,30.12,West,273,5.0,8.0,75,-99.99,,,-99.99,,2013-06-12 05:42:00,
2013-06-11 22:52:00,54.0,47.0,30.12,West,261,5.0,9.0,76,-99.99,,,-99.99,,2013-06-12 05:52:00,
2013-06-11 23:02:00,54.0,47.0,30.12,West,261,5.0,9.0,76,-99.99,,,-99.99,,2013-06-12 06:02:00,
2013-06-11 23:12:00,54.0,47.0,30.12,WSW,256,5.0,9.0,76,-99.99,,,-99.99,,2013-06-12 06:12:00,
2013-06-11 23:22:00,54.0,47.0,30.12,WNW,283,7.0,11.0,76,-99.99,,,-99.99,,2013-06-12 06:22:00,
2013-06-11 23:32:00,54.0,47.0,30.12,West,272,7.0,11.0,76,-99.99,,,-99.99,,2013-06-12 06:32:00,
2013-06-11 23:42:00,55.0,47.0,30.12,West,275,6.0,11.0,76,-99.99,,,-99.99,,2013-06-12 06:42:00,
2013-06-11 23:52:00,54.0,47.0,30.12,West,271,7.0,11.0,76,-99.99,,,-99.99,,2013-06-12 06:52:00,